Location: Unspecified
(43.4354°N, 0.0000°E)
Time: 08:19:02
(UTC+00:00)

S-56A Canister/Altair - Pass Details

Date: 04 July 2019
Orbit: 632 x 2500 km, 38.9° (Epoch: 16 July)

Event Time Altitude Azimuth Distance (km) Brightness Sun altitude
Rises 08:54:01 0° 187° (S) 6,074 12.2 45.9°
Reaches altitude 10° 08:59:45 10° 172° (S) 5,149 12.1 46.9°
Maximum altitude 09:08:47 19° 134° (SE) 4,362 12.3 48.5°
Drops below altitude 10° 09:17:13 10° 96° (E) 4,808 12.5 50.0°
Sets 09:22:11 0° 81° (E) 5,554 12.4 50.9°
